sat.trackr.live / text

‹ back to catalog

STARLINK-34361

NORAD 64450 · 2025-130N

PAYLOAD ACTIVE UNKNOWN

§ Identity

Operator
Country
US
Launch date
2025-06-18
Launch site
AFETR
Launch vehicle
Mass (kg)
RCS (m²)

Purposes: comms

External: N2YO · Heavens-Above · Gunter

§ Orbital elements

Epoch: 2026-05-25T03:05:53.462400Z

Period
93.85 min
Inclination
53.1611°
Eccentricity
0.0001859
Mean motion
15.34406671 rev/d
Perigee alt
461.4 km
Apogee alt
464.0 km
Semi-major
6,840.8 km
B*
6.7307e-4
RAAN
92.9597°
Arg perigee
97.1465°
Mean anomaly
262.9749°
Rev number
5,358

§ Raw data

STARLINK-343611 64450U 25130N   26145.12909100  .00022438  00000+0  67307-3 0  99942 64450  53.1611  92.9597 0001859  97.1465 262.9749 15.34406671 53581

JSON: /api/v1/satellites/64450 · /tle

For live sub-satellite position, see the globe view (requires WebGL).

§ Visibility from observer

Set your observer location to see the next 7 days of passes ≥ 10°. The values pass through the URL so the page stays shareable.

No JS? Fill the form by hand. The geolocation button needs JavaScript.